Location: Joplin
(37.0842°N, 94.5131°W)
Time: 16:12:26
(UTC-05:00)

OTV 5 (USA 277) - Visible Passes

Search period start: 20 June 2018 00:00
Search period end: 30 June 2018 00:00
Orbit: 313 x 320 km, 54.5° (Epoch: 19 June)

Date Brightness Start Highest point End Pass type
(mag) Time Alt. Az. Time Alt. Az. Time Alt. Az.
20 Jun ? 02:58:04 10° N 02:59:40 14° NNE 03:01:17 10° ENE visible
20 Jun ? 04:31:35 10° WNW 04:31:43 11° WNW 04:31:43 11° WNW visible
28 Jun ? 00:10:09 10° NNW 00:10:15 11° NNW 00:10:15 11° NNW visible
29 Jun ? 23:05:13 10° N 23:06:27 14° NNE 23:06:27 14° NNE visible
